Regional Weather Roundup
Issued by NWS State College, PA

Home | Current Version | Previous Version | Text Only | Print | Product List | Glossary Off
Versions: 1 2 3 4 5 6 7 8 9 10 11 12 13 14 15 16 17 18 19 20 21 22 23 24 25 26 27 28 29 30 31 32 33 34 35 36 37 38 39 40 41 42 43 44 45 46 47 48 49 50

092
ASUS41 KCTP 232010
RWRCTP

REGIONAL WEATHER ROUNDUP
NATIONAL WEATHER SERVICE STATE COLLEGE PA
400 PM EDT THU MAR 23 2017

Note: "fair" indicates few or no clouds below 12,000 feet with no
significant weather and/or obstructions to visibility.

* = STATION THAT DOES NOT REPORT PRECIPITATION /E.G. RAIN...SNOW...ETC/
    THUNDER OR FOG.

PAZ002>004-007>009-013>016-020>023-029>032-232100-
WESTERN PENNSYLVANIA

CITY           SKY/WX    TMP DP  RH WIND       PRES   REMARKS
ERIE           SUNNY     37  21  52 NE10      30.45F
MEADVILLE      SUNNY     44   6  21 VRB5      30.40F
FRANKLIN*      SUNNY     45   5  19 SE7       30.42F
NEW CASTLE     FAIR      48   6  18 VRB5      30.42F
BEAVER COUNTY  SUNNY     46   9  21 S9        30.41F
BUTLER*        SUNNY     45   9  23 E5        30.43F
PITTSBURGH INT MOSUNNY   47   2  15 S6        30.41F
PITTSBURGH     SUNNY     48   0  13 VRB3      30.41F
INDIANA*       SUNNY     46   0  14 VRB6      30.45F
LATROBE        SUNNY     46   1  15 SE7       30.43F
WASHINGTON CO* SUNNY     48   5  17 SE6       30.43F
$$

PAZ004>006-010>012-017>019-024>028-033>037-041-042-045-046-049>053-232100-
CENTRAL PENNSYLVANIA

CITY           SKY/WX    TMP DP  RH WIND       PRES   REMARKS
BRADFORD       SUNNY     40   2  20 MISG      30.39F
DUBOIS         SUNNY     42   0  17 CALM      30.40F
CLEARFIELD       N/A    N/A N/A N/A MISG      30.43F
JOHNSTOWN      SUNNY     42   4  20 S8        30.39F
ALTOONA        SUNNY     43   7  22 SW7       30.45F
STATE COLLEGE  SUNNY     41   9  26 S7        30.46F
WILLIAMSPORT   SUNNY     44   5  20 NW9       30.50F
SELINSGROVE    SUNNY     41  15  35 S8        30.52F
FT INDIANTOWN  SUNNY     43   5  20 SW8       30.51F
CAPITAL CITY   SUNNY     44   2  17 CALM      30.53F
HARRISBURG     MOSUNNY   44   6  21 NW8       30.53F
YORK           SUNNY     42  13  30 SW7       30.53F
$$

PAZ038>040-043-044-047-048-054-055-060>062-067>071-232100-
EASTERN PENNSYLVANIA

CITY           SKY/WX    TMP DP  RH WIND       PRES   REMARKS
SCRANTON       SUNNY     36   8  31 N6        30.50F
MOUNT POCONO   SUNNY     32  -1  24 W14       30.43F
ALLENTOWN      SUNNY     43   4  19 W8        30.52F
QUAKERTOWN*    CLEAR     41   7  24 W7        30.53F
READING        SUNNY     42  11  28 VRB3      30.53F
LANCASTER      SUNNY     42  11  28 VRB7      30.53F
COATESVILLE    CLEAR     41   9  26 W10       30.54F
POTTSTOWN      SUNNY     42   7  23 VRB6      30.54F
BLUE BELL      SUNNY     41  10  28 NW7       30.53F
DOYLESTOWN     SUNNY     35   8  32 N6        30.52F
WILLOW GROVE   NOT AVBL
NORTH PHILA    SUNNY     44   6  21 VRB6G20   30.56F
PHILADELPHIA   MOSUNNY   43   6  21 SW10      30.56F
$$




USA.gov is the U.S. government's official web portal to all federal, state and local government web resources and services.